[Iaude] MPEC L142: 2024 LS4 [a=1.35,e=0.23,i=6.1,H=25.8]

mpec at cfa.harvard.edu mpec at cfa.harvard.edu
Fri Jun 14 22:14:06 EDT 2024


M.P.E.C. 2024-L142                                Issued 2024 June 15, 02:12 UT

     The Minor Planet Electronic Circulars contain information on unusual
         minor planets, routine data on comets and natural satellites,
         and occasional editorial announcements.  They are published
    on behalf of Division F of the International Astronomical Union by the
          Minor Planet Center, Smithsonian Astrophysical Observatory,
                          Cambridge, MA 02138, U.S.A.
			  
             Prepared using the Tamkin Foundation Computer Network

                              MPC at CFA.HARVARD.EDU
            URL https://www.minorplanetcenter.net/    ISSN 1523-6714

                                    2024 LS4                                    


Observations:
     K24L04S  C2024 06 13.38776616 54 41.833-03 19 14.03         19.33GVEL142F51
     K24L04S  C2024 06 13.40204716 54 51.096-03 15 39.72               VEL142F51
     K24L04S* C2024 06 13.41295016 54 58.172-03 12 56.34         19.39wXEL142F51
     K24L04S  C2024 06 13.42410216 55 05.413-03 10 08.85         19.70wXEL142F51
     K24L04S  C2024 06 13.48674416 55 46.433-02 54 25.25         19.41GVEL142F51
     K24L04S  C2024 06 13.48739016 55 46.863-02 54 15.59         19.60GVEL142F51
     K24L04S KB2024 06 13.49463316 56 10.873-02 53 31.78         14.7 VZEL142Q06
     K24L04S KB2024 06 13.50172916 56 15.822-02 51 44.26         17.6 VZEL142Q06
     K24L04S KB2024 06 13.50882716 56 20.642-02 49 57.87         18.3 VZEL142Q06
     K24L04S 1C2024 06 13.82091 17 00 17.65 -01 31 44.6          19.1 GVEL142C40
     K24L04S 1C2024 06 13.82867 17 00 23.07 -01 29 46.0          18.9 GVEL142C40
     K24L04S 1C2024 06 13.83642 17 00 28.47 -01 27 47.8          19.0 GVEL142C40
     K24L04S KB2024 06 13.87372 17 01 01.37 -01 18 16.4          17.9 GXEL142G15
     K24L04S KC2024 06 13.87721817 01 03.517-01 17 20.77         20.2 GVEL142104
     K24L04S KB2024 06 13.87766 17 01 04.09 -01 17 16.6          18.9 GXEL142G15
     K24L04S KC2024 06 13.88590517 01 09.576-01 15 07.65         20.2 GVEL142104
     K24L04S KB2024 06 13.88986 17 01 11.921-01 14 05.42         18.8 GVEL142L47
     K24L04S KB2024 06 13.89068 17 01 12.451-01 13 52.82         18.8 GVEL142L47
     K24L04S KB2024 06 13.89149 17 01 13.058-01 13 40.80         19.0 GVEL142L47
     K24L04S KC2024 06 13.89994 17 01 17.14 -01 11 52.2          19.1 GXEL142G02
     K24L04S 1C2024 06 13.90800 17 01 17.96 -01 09 32.4          19.4 GVEL142C40
     K24L04S KC2024 06 13.90809 17 01 22.79 -01 09 47.4          19.1 GXEL142G02
     K24L04S KC2024 06 13.91644 17 01 28.67 -01 07 39.4          18.6 GXEL142G02
     K24L04S 1C2024 06 13.91707 17 01 24.18 -01 07 13.6          18.7 GVEL142C40
     K24L04S  C2024 06 13.92111 17 01 31.56 -00 59 58.9          19.5 GVEL142M28
     K24L04S  C2024 06 13.92317 17 01 32.91 -00 59 27.9          19.8 GVEL142M28
     K24L04S  C2024 06 13.92542 17 01 34.43 -00 58 53.4          19.2 GVEL142M28
     K24L04S 1C2024 06 13.92609 17 01 30.55 -01 04 56.3          19.4 GVEL142C40
     K24L04S KB2024 06 14.04538717 03 15.441-00 29 10.19         19.2 VZEL142Y05
     K24L04S KB2024 06 14.05257417 03 20.259-00 27 19.75         20.1 VZEL142Y05
     K24L04S KB2024 06 14.05965617 03 24.995-00 25 30.24         18.8 VZEL142Y05
     K24L04S KC2024 06 14.36844 17 07 19.543+00 49 02.46         19.0 GVEL142U52
     K24L04S KC2024 06 14.37200 17 07 21.977+00 49 56.96         18.7 GVEL142U52
     K24L04S KC2024 06 14.37557 17 07 24.468+00 50 52.51         18.5 GVEL142U52
     K24L04S KB2024 06 14.57032817 10 08.226+01 41 50.85         19.1 VZEL142Q06
     K24L04S KB2024 06 14.57742917 10 13.196+01 43 42.06         19.2 VZEL142Q06
     K24L04S KB2024 06 14.58453117 10 18.115+01 45 32.52         18.9 VZEL142Q06
     K24L04S KC2024 06 14.87905 17 14 19.53 +03 01 45.5                XEL142K83
     K24L04S KC2024 06 14.88165 17 14 20.94 +03 02 40.8                VEL142C82
     K24L04S KC2024 06 14.88759 17 14 25.72 +03 04 01.0                XEL142K83
     K24L04S KC2024 06 14.89856 17 14 33.02 +03 07 05.2          19.3 GVEL142C82
     K24L04S KB2024 06 14.91894 17 14 51.674+03 12 28.30         19.4 GXEL142J57
     K24L04S KB2024 06 14.92618 17 14 56.863+03 14 21.44         19.9 GXEL142J57
     K24L04S KC2024 06 14.92679017 14 53.27 +03 14 07.8          20.1 GXEL142595
     K24L04S IC2024 06 14.93560717 14 59.64 +03 16 26.3          19.7 GXEL142595
     K24L04S IC2024 06 14.94441817 15 06.00 +03 18 44.7          19.3 GXEL142595
     K24L04S IC2024 06 14.95132017 15 10.86 +03 20 35.4          19.7 GVEL142L01
     K24L04S KC2024 06 14.95354617 15 12.42 +03 21 10.1          20.1 GVEL142L01
     K24L04S KC2024 06 14.95577117 15 14.03 +03 21 46.1          19.9 GVEL142L01

Observer details:
104 San Marcello Pistoiese.  Observers P. Bacci, M. Maestripieri.  Measurers
    P. Bacci, L. Tesi, G. Fagioli.  0.60-m F4 Reflector + CCD.
595 Farra d'Isonzo.  Observer E. Pettarin.  0.61-m f/4.5 reflector + CCD.
C40 Kuban State University Astrophysical Observatory.  Observers A. Ivanov, A.
    Barcov, V. Ivanov, V. Lysenko, N. Yakovenko, N. Ivanova, N. Gorbunov, G.
    Kurbatov, P. Shchukin, V. Roshchupko.  Measurer A. Ivanov.  0.51-m f/8
    reflector + CCD.
C82 Osservatorio Astronomico Nastro Verde, Sorrento.  Observer N. Ruocco.
    0.35-m f/6.3  Schmidt-Cassegrain + CCD.
F51 Pan-STARRS 1, Haleakala.  Observers J. Herman, T. Lowe, P. Minguez, A.
    Schultz, I. Smith.  Measurers K. Chambers, T. de Boer, J. Fairlamb, H.
    Gao, M. Huber, C.-C. Lin, E. Magnier, Y. Ramanjooloo, R. Wainscoat, R.
    Weryk.  1.8-m Ritchey-Chretien + CCD.
G02 KYSUCE Observatory, Kysucke Nove Mesto.  Observer M. Urbanik.  0.40-m
    f/6.8 Corrected Dall-Kirkham + CCD.
G15 Magroforte Observatory, Alessandria.  Observer A. De Pieri.  0.23-m f/6.7
    SC + CMO.
J57 Centro Astronomico Alto Turia, Valencia.  Observer A. Fornas.  Measurers
    A. Fornas, G. Fornas, E. Arce, V. Mas.  0.43-m f/6.8 Reflector CDK + CMO.
K83 Beppe Forti Astronomical Observatory, Montelupo.  Observers M. Tombelli,
    A. Mazzanti, G. Ferrini, M. Iozzi, G. Interrante, E. Biscardi.  Measurers
    M. Tombelli, F. Bernardi, L. Grazzini, A. Squilloni, F. Cheli.  0.40-m f/8
    Ritchey-Chretien + CCD.
L01 Visnjan Observatory, Tican.  Observer K. Korlevic.  1.0-m f/2.9 reflector
    + CCD.
L47 Osservatorio Astronomico, Piobbico.  Observers A. Teseo, A. Annamelia.
    Measurer A. Teseo.  0.28-m f/6.3 Schmidt-Cassegrain + CMO.
M28 Lesedi Telescope-SAAO Observatory, Sutherland.  Observers N. Erasmus, S.
    Potter, C. van Gend, S. Chandra, H. Worters.  Measurers T. Ngwane, N.
    Erasmus.  1.0-m f/8 Reflector + CCD.
Q06 Tarui Observatory, Tarui.  Observer H. Watanabe.  0.35-m f/1.9 Schmidt-
    Cassegrain + CMO.
U52 Shasta Valley Observatory, Grenada.  Observers J. E. Rogers, B. Haeusler.
    Measurers J. E. Rogers, D. Parrott.  0.30-m f/5.2 Helin Telescope + CCD.
Y05 SONEAR Wykrota-CEAMIG, Serra da Piedade.  Observer C. Jacques.  0.45-m
    f/2.9 reflector + CMO.

Orbital elements:
2024 LS4                                                 Earth MOID = 0.0285 AU
Epoch 2024 Mar. 31.0 TT = JDT 2460400.5                 Veres                   
M 302.05499              (2000.0)            P               Q                  
n   0.62873110     Peri.   23.43392     +0.18354129     +0.97756582             
a   1.3494581      Node   257.26944     -0.91782562     +0.13277879             
e   0.2344902      Incl.    6.08116     -0.35200671     +0.16350799             
P   1.57           H   25.84          G   0.15           U   7                  
Residuals in seconds of arc
240613 F51  0.1-  0.1-    240613 L47  1.2-  0.2+    240614 Q06  0.3+  0.2+
240613 F51  0.1-  0.2+    240613 L47  0.5-  0.2-    240614 Q06  0.6+  0.5+
240613 F51  0.0   0.0     240613 G02  0.1+  0.4-    240614 Q06  0.1+  0.1+
240613 F51  0.1+  0.0     240613 C40  1.0+  0.8+    240614 K83  0.1+  0.3-
240613 F51  0.1+  0.0     240613 G02  0.7-  0.3-    240614 C82  0.1+  0.9+
240613 F51  0.1+  0.1-    240613 G02  0.0   0.1-    240614 K83  0.1+  0.9+
240613 Q06  0.6-  0.3-    240613 C40  0.2-  0.6+    240614 C82  0.6-  0.6-
240613 Q06  0.6+  0.7+    240613 M28  0.1-  0.4+    240614 J57  0.2+  0.5+
240613 Q06  0.1+  0.4+    240613 M28  0.7-  0.2-    240614 J57  0.2-  0.3-
240613 C40  0.3-  0.4-    240613 M28  0.6-  0.2-    240614 595  0.5+  0.1-
240613 C40  0.3+  0.1-    240613 C40  1.2+  0.3-    240614 595  0.8+  0.2-
240613 C40  0.9+  0.2-    240614 Y05  0.7+  0.1+    240614 595  1.1+  0.2-
240613 G15  0.3+  0.1+    240614 Y05  0.4+  0.1-    240614 L01  0.3+  0.4-
240613 104  0.2+  0.2-    240614 Y05  0.1+  0.4+    240614 L01  0.3-  0.6-
240613 G15  0.4-  0.2-    240614 U52 (1.2+  0.9+)   240614 L01  0.2-  0.4+
240613 104  0.1+  0.2+    240614 U52  0.1+  0.1+
240613 L47  0.6-  0.1+    240614 U52  0.1-  0.3+

Ephemeris:
2024 LS4                 a,e,i = 1.35, 0.23, 6                   q = 1.0330
Date    TT    R. A. (2000) Decl.     Delta      r    Elong.  Phase     V
2024 05 16    14 15 06.7 -42 57 39   0.09715 1.0972   151.2    26.4    22.2
...
2024 05 31    14 58 04.6 -35 28 06   0.05425 1.0634   155.4    23.4    20.8
...
2024 06 08    15 54 47.1 -21 46 31   0.03642 1.0500   163.7    15.7    19.6
...
2024 06 14    17 02 32.5 -00 42 39   0.02904 1.0424   156.5    22.9    19.3
2024 06 15    17 15 49.9 +03 36 31   0.02864 1.0413   152.7    26.6    19.4
2024 06 16    17 29 31.6 +07 58 43   0.02851 1.0403   148.6    30.6    19.5
...
2024 06 22    18 53 59.8 +30 20 44   0.03303 1.0355   124.9    53.6    20.5
...
2024 06 30    20 25 38.0 +43 53 53   0.04768 1.0327   108.4    69.1    21.7
...
2024 07 15    21 51 37.9 +48 44 49   0.08116 1.0386   103.7    72.0    23.0

M. P. C. Staff               (C) Copyright 2024 MPC           M.P.E.C. 2024-L142





More information about the Iaude mailing list